GFSNGP_sfc_thetae_000.txt.gz
Theta_e
292 295 298 296 297 298 294 294 292 294 295 300 301 305 305 302 300 299 300 302 304 304 304 305 307 308 311 311 311 312 312 311 311 308 308 309 310 309 310 311 312 313 312 310
290 295 295 294 297 299 299 296 296 297 295 303 306 309 308 303 300 301 301 303 304 306 306 306 308 308 310 309 310 312 312 311 311 307 307 308 308 308 308 308 309 311 311 310
286 295 294 291 295 298 298 299 298 294 299 303 305 307 307 306 302 302 303 304 305 306 307 308 309 310 309 308 310 312 312 313 311 308 308 308 307 306 306 306 307 308 309 309
290 293 284 294 301 302 301 301 300 300 301 304 304 307 309 309 304 303 304 305 306 307 308 309 310 309 309 307 310 312 312 313 312 309 307 308 307 305 304 304 305 305 306 307
289 284 293 296 300 299 299 298 303 302 302 304 306 307 307 311 309 308 306 307 307 309 309 310 310 310 308 307 310 312 312 313 313 309 307 307 306 304 303 302 302 302 304 304
285 286 286 294 302 305 303 294 303 305 302 304 305 300 305 309 311 310 310 308 308 309 310 310 311 310 307 306 309 311 313 315 314 310 308 307 307 305 305 303 304 303 303 303
285 283 290 299 304 305 293 295 304 306 305 303 304 308 309 310 311 312 312 309 309 309 309 310 311 310 308 307 308 312 315 316 315 311 308 308 307 306 306 305 304 303 303 303
285 285 287 303 303 299 302 303 306 306 306 306 309 308 309 309 311 312 310 310 308 308 309 310 311 311 309 307 310 312 315 316 316 313 311 308 307 306 307 305 304 303 303 302
293 292 299 306 305 307 304 305 306 305 305 308 308 307 309 309 310 311 310 309 308 308 309 310 311 312 310 310 310 311 314 315 316 314 313 309 307 306 307 306 305 304 304 303
296 298 300 305 305 306 306 306 309 308 308 308 308 309 309 310 310 310 311 310 309 308 308 309 311 312 312 313 312 312 313 314 316 315 314 311 309 308 308 307 306 306 306 306
295 298 300 303 306 306 308 309 310 311 310 310 310 311 311 311 311 311 311 312 310 308 308 309 311 312 313 313 313 311 312 314 315 316 314 315 313 310 309 310 309 309 309 309
295 299 301 302 307 307 308 309 311 311 311 313 312 311 313 311 311 312 312 311 311 310 310 310 310 311 312 314 314 312 312 313 314 315 315 316 315 314 301 300 299 298 296 307
300 303 302 305 309 309 308 310 311 311 311 311 314 313 313 311 312 312 315 313 312 311 310 310 310 311 313 314 314 313 312 313 314 313 315 316 316 316 314 312 299 296 297 296
305 308 307 309 306 308 310 311 311 312 313 313 312 313 314 313 314 314 314 315 314 312 312 311 310 310 313 314 314 314 314 305 314 315 315 316 317 317 317 316 315 316 299 297
307 308 309 311 311 310 310 311 310 310 312 313 315 313 313 313 314 315 317 316 315 315 313 311 311 310 312 313 313 314 315 314 315 315 315 314 316 317 317 317 317 317 305 298
307 308 310 309 307 308 309 310 310 310 312 313 312 312 313 313 314 316 316 318 316 313 314 313 312 312 313 313 313 313 315 307 310 315 313 314 315 315 315 316 316 314 311 305
305 304 306 306 307 305 306 309 311 312 311 310 311 312 312 313 315 316 317 318 317 317 316 314 313 313 313 314 312 312 313 311 304 313 311 313 314 314 314 314 309 305 302 298
307 306 307 307 307 306 307 308 309 311 311 312 314 315 314 314 312 313 314 315 315 316 314 315 315 313 314 313 312 312 311 309 311 312 314 314 313 311 308 305 302 300 300 297
303 304 304 306 306 305 305 305 307 310 311 311 315 314 313 312 311 310 310 310 309 311 311 313 301 311 314 309 313 315 314 313 312 310 309 302 307 307 305 303 302 302 302 301
301 301 303 303 303 303 302 302 304 305 306 310 312 311 308 309 310 309 307 302 301 304 308 312 315 315 313 308 307 315 314 312 311 311 310 309 307 305 304 299 303 302 301 300
304 302 303 303 302 302 303 304 305 305 308 311 310 307 304 303 305 307 307 305 303 302 305 302 314 315 314 311 314 316 315 312 310 310 309 307 306 305 304 302 300 298 297 296
302 303 303 303 303 303 302 302 303 307 312 310 307 305 303 301 301 300 300 302 302 290 306 306 305 296 307 302 316 315 314 313 310 309 308 306 303 301 300 299 297 296 295 295
300 299 300 300 300 302 300 300 302 303 310 310 307 305 304 304 305 306 304 299 300 294 304 306 295 292 294 315 314 312 310 308 306 305 303 302 300 299 298 296 296 295 295 295
301 299 298 297 297 298 296 297 298 299 302 307 307 306 305 305 302 299 297 290 290 295 296 297 293 290 296 307 307 306 304 302 300 300 299 295 299 298 297 296 296 296 295 294
298 297 296 295 294 293 294 295 297 296 297 297 298 299 301 302 305 302 302 298 291 297 298 288 290 293 303 303 302 301 301 300 300 299 299 298 297 297 297 296 296 296 295 295
296 295 294 294 294 294 294 294 293 294 295 295 295 296 297 298 298 298 297 296 299 295 300 300 300 300 301 301 301 301 299 298 298 298 298 297 297 297 296 296 295 295 294 294
295 294 295 294 294 293 293 293 294 293 293 294 294 295 296 297 296 296 294 298 299 298 299 299 300 298 300 300 300 300 299 299 296 298 298 297 297 296 296 296 295 295 295 295

GFSNGP_sfc_thetae_003.txt.gz
Theta_e
301 301 302 301 301 302 300 301 297 300 301 306 311 313 315 314 311 309 310 311 312 313 314 316 317 318 321 323 320 320 319 321 321 320 320 321 321 322 323 325 324 323 322 322
298 300 300 298 301 302 303 302 303 303 303 312 313 316 314 311 309 308 310 311 312 313 314 315 316 318 320 322 321 320 320 320 321 317 318 320 320 321 322 323 323 323 323 322
294 298 298 294 299 300 303 305 304 300 306 311 312 314 316 313 311 311 311 311 312 313 314 316 317 319 320 322 322 320 320 320 320 317 317 319 318 319 320 322 323 322 322 322
296 298 289 301 306 304 303 305 307 307 309 312 313 317 319 318 314 314 313 313 314 315 317 318 319 320 321 322 321 320 320 319 319 316 317 318 318 319 320 320 322 322 321 322
297 296 298 301 304 302 302 303 309 308 310 312 314 316 315 318 319 318 316 317 317 317 318 318 318 320 321 320 320 319 319 319 319 316 317 318 317 318 318 318 318 319 320 320
299 295 291 302 309 310 310 300 311 312 312 312 313 307 311 319 320 319 318 318 317 317 318 319 320 321 320 319 319 319 319 320 320 317 317 318 320 318 317 318 318 316 316 318
294 296 299 306 310 311 299 302 315 314 314 314 311 315 321 321 321 323 322 318 319 317 318 320 322 322 319 319 318 320 320 321 321 319 318 320 321 319 318 316 316 315 315 316
297 293 291 308 309 305 314 315 315 315 316 315 319 319 318 319 320 321 320 319 317 316 318 320 321 321 320 320 321 321 321 320 322 321 317 318 320 319 318 318 317 316 316 315
298 298 310 313 314 318 319 317 313 317 317 317 317 317 318 318 318 320 321 320 317 316 317 318 321 321 320 321 321 320 321 321 322 322 319 318 319 319 317 318 315 315 313 312
302 304 308 311 315 316 314 314 315 317 317 317 317 317 318 318 319 320 321 320 318 317 316 316 319 320 322 321 320 319 321 322 323 322 320 319 317 318 317 316 315 314 313 313
303 307 308 310 314 314 314 315 316 316 317 317 317 317 318 319 320 320 321 321 318 316 317 317 318 319 321 322 321 321 323 323 322 322 321 320 318 317 316 321 316 316 316 316
300 308 310 312 315 315 314 314 316 317 317 319 319 319 321 321 322 322 321 321 319 317 317 318 318 318 320 320 321 322 322 322 321 321 321 321 319 318 302 301 299 298 298 311
306 310 311 314 317 316 316 317 317 317 318 319 320 321 321 321 320 317 321 322 320 319 317 318 318 318 319 320 321 321 321 322 322 319 321 320 320 318 317 311 297 295 295 296
307 310 310 311 312 316 316 316 316 319 319 320 321 322 322 321 320 320 321 323 323 321 320 318 317 317 319 319 321 321 322 307 322 322 322 322 322 321 320 320 320 320 296 298
306 310 312 315 316 314 316 316 315 315 316 317 319 320 320 320 321 322 322 324 324 323 320 318 316 317 319 319 320 321 321 320 322 322 323 321 324 322 321 321 321 323 316 304
306 309 312 312 314 314 314 315 314 315 316 318 319 321 321 321 322 321 322 322 322 323 323 321 318 319 319 320 320 320 321 310 313 322 322 322 322 322 322 323 323 322 323 317
305 307 311 312 313 314 314 315 317 317 317 318 320 319 319 319 320 322 324 325 324 324 325 323 322 320 318 319 322 321 320 320 308 320 322 322 322 321 322 322 322 322 317 310
309 310 313 315 314 314 315 316 316 316 317 317 318 319 320 320 320 321 321 323 322 322 321 322 323 322 319 318 322 320 321 320 318 319 320 321 320 321 322 320 317 313 308 302
307 309 311 313 314 314 313 314 315 316 318 321 321 319 319 318 317 317 318 318 319 321 319 320 305 312 320 316 315 318 318 320 319 320 320 309 319 319 317 315 312 309 307 308
306 306 307 307 308 311 312 314 314 313 317 319 317 317 316 316 316 315 315 313 312 314 318 319 321 320 321 312 306 318 319 319 319 318 317 317 315 313 312 305 310 309 309 307
306 306 306 306 305 306 310 313 315 316 317 317 315 315 315 315 316 317 317 315 312 311 315 310 320 319 319 315 316 321 320 320 318 316 315 313 312 311 311 310 309 305 303 299
305 305 306 307 307 306 309 311 316 316 315 312 312 311 311 311 312 311 312 315 313 292 314 317 316 300 312 300 320 319 317 317 315 314 313 312 311 307 307 303 300 299 296 296
302 302 303 305 305 305 307 308 310 314 315 313 311 311 312 313 315 317 315 309 313 302 317 314 294 290 293 321 320 319 318 317 316 314 312 309 307 304 302 299 298 298 297 297
303 303 303 304 305 305 303 304 306 307 309 314 312 312 314 312 309 308 306 294 290 301 311 308 299 292 299 318 318 317 315 314 312 310 307 299 306 303 300 297 297 298 299 298
302 303 304 304 303 302 303 304 304 304 306 307 308 309 310 311 312 308 307 304 291 303 306 289 290 292 312 312 311 311 311 310 308 306 305 304 303 302 301 300 299 299 298 298
302 301 301 301 302 303 303 304 302 302 304 304 304 306 308 308 307 307 305 300 306 298 307 308 306 308 310 309 308 308 306 302 303 303 302 302 300 299 299 298 298 299 300 299
303 298 303 302 302 302 301 300 302 301 301 302 302 303 306 307 304 304 298 306 305 305 302 301 301 298 302 302 301 302 301 301 298 300 300 302 301 300 300 299 299 299 299 299

GFSNGP_sfc_thetae_006.txt.gz
Theta_e
302 303 304 303 302 303 302 304 300 302 303 307 311 313 316 321 320 317 316 317 318 319 318 318 319 320 322 324 322 320 320 320 321 325 325 326 326 328 329 327 326 325 325 326
301 302 303 301 303 304 304 304 304 305 304 312 314 315 317 320 319 317 316 317 319 320 318 318 319 320 322 323 322 322 321 320 320 320 323 324 326 328 328 327 326 326 325 325
297 301 301 297 302 304 305 306 306 302 307 312 312 314 317 320 319 318 318 318 319 320 320 319 320 321 322 323 324 322 321 321 320 319 320 323 323 325 327 329 330 327 326 326
298 300 291 302 308 307 305 306 308 308 310 312 313 317 319 322 321 321 320 320 320 321 322 321 321 322 324 324 323 321 321 321 321 317 318 322 323 325 328 330 330 329 328 327
298 298 299 303 306 305 304 304 309 309 310 311 314 317 317 322 324 324 324 324 323 324 324 323 321 323 323 323 323 320 319 320 321 318 318 320 321 325 327 328 329 328 327 327
301 296 292 303 309 312 311 300 311 312 312 312 314 309 312 323 324 325 327 327 325 325 325 324 323 323 323 322 322 320 320 320 321 319 319 319 322 325 327 327 326 323 324 326
299 300 301 309 311 314 301 303 315 315 316 315 314 316 320 323 325 326 327 327 328 326 324 328 325 323 322 322 321 322 321 321 322 322 320 323 325 325 325 324 322 323 321 324
301 298 295 313 313 306 312 322 318 319 320 319 321 322 322 324 325 325 327 326 326 325 325 327 326 324 322 322 324 323 322 320 322 324 319 321 325 325 324 323 322 321 320 320
301 302 316 317 315 320 319 317 318 321 322 323 322 322 323 323 324 325 326 326 325 326 326 327 326 325 322 324 324 323 322 321 323 324 321 322 324 323 321 323 318 317 316 316
303 307 309 312 318 320 322 320 320 323 324 324 322 323 323 323 324 324 325 327 326 325 325 325 326 326 327 325 324 322 323 322 324 324 322 321 322 322 319 319 318 317 316 316
302 306 308 310 312 317 320 322 320 321 322 322 322 322 323 322 323 324 325 326 327 325 325 325 326 326 327 325 324 324 324 324 324 323 323 321 321 321 319 325 318 318 318 318
298 306 308 309 313 314 319 319 320 320 320 322 322 322 323 322 325 325 325 326 327 326 326 326 326 326 326 326 325 328 327 324 323 322 322 321 319 318 303 302 302 300 300 310
306 312 313 317 319 319 316 320 321 322 322 322 323 322 323 323 326 321 326 326 326 326 326 327 326 325 326 326 326 327 328 327 324 319 322 319 319 317 316 310 298 296 296 297
312 311 309 313 313 315 319 319 319 322 323 322 322 324 324 323 324 324 324 326 327 327 327 326 326 325 326 326 326 326 330 311 324 324 322 321 320 319 318 316 315 316 298 299
308 310 311 315 317 319 319 320 320 320 320 321 322 323 324 323 324 324 326 327 329 328 326 326 325 325 327 326 326 325 327 324 326 323 323 320 322 321 320 319 318 317 318 305
307 307 308 311 314 317 318 319 317 318 319 320 321 321 322 324 325 326 327 326 326 327 327 326 325 326 326 326 326 325 326 312 315 323 322 322 322 322 321 321 320 321 325 324
305 305 307 308 313 316 317 319 318 318 319 320 322 324 325 324 325 325 326 329 329 329 330 329 328 327 326 326 327 325 325 325 311 323 322 322 322 322 322 322 321 322 323 321
311 311 313 315 316 317 318 319 319 320 321 323 325 324 323 323 323 325 327 329 330 329 331 331 330 328 326 325 326 325 324 324 323 321 322 322 322 323 323 323 323 324 322 315
312 313 315 316 318 319 320 319 320 323 324 323 323 324 325 325 325 326 326 326 327 328 330 328 308 314 329 322 319 326 323 323 324 323 323 314 322 323 323 323 325 322 319 316
312 314 316 317 318 320 320 322 324 323 324 325 325 325 324 323 323 324 325 324 325 326 325 327 326 327 329 322 304 325 324 324 323 322 321 322 322 323 324 314 321 317 317 316
311 314 313 313 315 317 319 320 318 320 322 323 321 322 323 323 324 325 324 325 323 320 322 312 327 326 325 318 315 323 323 323 323 323 322 322 322 323 322 319 317 316 315 314
308 311 311 312 313 314 315 317 318 318 318 317 318 319 320 321 321 321 322 323 323 294 321 326 325 302 318 296 322 322 321 323 323 323 321 320 318 317 317 316 315 312 311 306
306 310 310 310 310 309 310 311 313 316 316 318 318 320 320 320 321 321 319 319 325 307 322 320 296 294 294 324 323 322 322 322 321 320 318 317 316 315 313 312 309 306 301 301
304 305 304 306 308 307 307 309 310 313 316 318 318 320 320 318 317 319 316 298 295 303 317 314 305 294 299 324 323 322 321 319 319 317 316 305 312 311 310 306 304 302 299 298
305 306 306 305 305 305 307 309 310 313 315 316 316 317 317 318 318 315 318 315 296 309 317 290 292 296 323 323 323 321 320 320 319 318 316 314 312 309 304 302 304 303 301 302
306 304 304 305 305 306 308 309 308 310 313 313 313 315 316 317 314 314 313 309 317 305 318 319 320 320 319 319 319 319 318 314 314 314 312 309 308 307 307 304 300 302 302 301
305 301 306 305 305 305 306 306 308 307 307 311 310 312 314 314 311 311 302 314 314 314 314 313 314 308 314 315 314 314 314 315 307 313 313 311 309 307 306 304 302 302 301 301

GFSNGP_sfc_thetae_009.txt.gz
Theta_e
306 307 306 305 304 304 304 304 302 304 305 309 312 313 315 319 321 320 318 319 320 321 320 318 321 321 322 324 323 320 320 320 324 325 326 328 329 329 327 327 327 328 330 331
302 305 306 303 305 305 305 305 305 306 306 313 315 316 316 319 320 319 319 319 320 322 320 318 320 321 322 324 322 320 320 319 322 323 323 325 328 329 328 326 325 326 326 327
299 303 303 300 304 305 306 306 307 303 309 313 313 314 315 318 319 320 320 320 321 322 321 320 320 322 322 324 323 321 321 320 319 322 322 323 325 325 326 328 330 328 327 327
300 302 293 304 310 309 307 308 309 309 311 313 314 316 317 319 321 321 322 321 322 323 324 322 322 323 324 324 322 320 320 320 318 319 322 323 323 325 329 330 330 329 327 327
299 299 301 304 307 307 305 305 311 310 312 314 315 316 316 319 323 324 325 325 324 326 326 324 322 323 324 323 323 320 320 320 319 317 320 322 323 327 330 331 332 329 328 327
301 297 293 304 309 312 312 301 312 312 312 313 314 308 312 320 322 324 326 327 326 326 327 325 324 324 324 322 322 320 320 321 321 318 319 321 325 329 330 330 329 326 326 327
298 299 302 309 312 313 300 304 315 314 314 315 312 315 320 322 323 326 327 328 329 327 328 330 329 328 323 323 322 322 321 322 322 321 321 325 331 331 330 328 327 326 324 327
301 297 296 313 312 305 313 316 317 316 316 317 318 319 320 322 325 326 326 327 328 326 327 331 327 327 323 325 325 324 322 321 322 323 321 322 329 328 327 329 328 325 325 323
304 303 315 316 315 320 320 318 318 319 319 319 319 320 320 322 324 325 326 327 328 328 328 330 329 327 326 328 325 324 322 321 323 323 321 324 326 326 322 327 321 320 318 317
307 311 312 315 318 320 319 319 320 320 322 322 321 322 322 324 325 325 326 327 328 328 327 328 330 329 328 326 325 324 323 325 326 324 321 325 324 324 321 320 318 317 316 316
306 309 312 314 317 318 319 320 322 323 322 322 322 323 323 323 324 326 327 328 328 328 328 328 330 329 328 327 326 326 328 326 327 324 324 324 324 322 320 325 319 318 320 318
303 310 310 311 315 316 318 319 321 320 320 322 323 322 323 323 326 326 326 327 328 328 328 329 330 329 329 328 328 329 329 325 323 322 323 320 321 321 304 304 302 299 298 309
306 311 312 317 319 318 316 318 322 321 322 321 322 322 324 324 326 322 326 326 327 328 328 329 329 329 330 329 329 330 329 329 324 320 322 320 319 318 318 310 298 298 296 298
311 312 310 313 313 316 317 318 317 321 323 322 323 323 323 322 325 325 325 326 328 328 328 329 329 329 330 330 330 331 332 310 326 325 323 321 321 319 318 317 316 318 300 305
306 311 312 313 316 318 320 319 318 318 319 321 323 322 322 322 323 323 325 326 327 327 327 327 328 329 330 330 331 331 332 328 327 326 324 321 322 321 318 318 318 317 319 303
307 310 311 310 311 314 316 317 316 318 320 322 321 321 322 323 324 324 325 326 326 327 328 327 328 329 330 330 332 331 332 317 318 327 325 324 323 320 321 321 321 319 319 317
304 304 307 307 308 309 313 316 317 318 320 321 321 322 322 322 323 324 326 328 328 328 330 329 328 330 330 330 333 329 329 329 312 325 324 324 324 323 323 321 320 319 322 318
309 309 311 311 311 311 311 314 317 318 320 320 320 322 322 324 324 324 326 328 330 330 332 333 332 331 329 329 332 329 329 329 328 326 326 325 324 324 324 320 322 320 322 313
310 310 311 312 312 313 316 318 318 319 320 320 320 323 325 326 326 327 328 328 329 328 331 335 310 320 333 325 322 328 328 327 327 327 327 317 322 323 322 323 322 323 322 320
309 312 312 312 313 314 315 319 322 320 320 321 324 325 324 325 327 327 328 326 328 331 334 333 330 331 332 326 307 327 327 327 326 326 325 324 324 323 321 310 320 326 324 323
311 313 313 313 314 315 317 320 321 320 324 325 325 325 325 327 327 328 328 325 329 326 327 312 329 331 332 325 320 325 327 328 328 327 325 325 324 325 324 323 324 324 322 321
312 312 315 315 316 320 323 325 324 322 321 319 325 325 326 326 327 327 329 327 326 293 324 331 330 303 318 299 326 325 325 326 326 326 326 325 326 326 325 325 321 321 319 317
307 313 315 315 317 319 320 320 320 320 319 320 320 321 323 323 324 323 321 325 326 307 325 323 299 292 294 323 325 325 326 324 324 325 325 325 325 324 325 322 319 315 314 313
307 309 311 313 316 315 313 316 318 318 318 319 317 317 320 321 320 320 319 301 299 307 319 314 307 293 291 328 327 326 326 325 325 324 324 305 321 321 319 317 316 314 309 302
305 306 309 310 312 311 313 314 314 314 316 316 317 318 319 321 319 320 321 318 297 309 321 295 297 297 326 327 326 324 323 323 323 322 321 320 319 314 313 312 307 304 303 303
305 306 307 308 310 311 311 311 309 311 313 313 313 317 319 319 318 319 320 313 321 309 322 323 323 325 325 325 324 324 323 321 320 319 316 317 316 311 310 309 305 304 302 299
305 302 306 306 307 308 309 308 307 307 308 312 312 315 317 319 315 314 306 319 319 319 319 320 320 313 321 321 321 320 320 320 311 318 317 315 312 310 308 305 304 302 300 300

GFSNGP_sfc_thetae_012.txt.gz
Theta_e
305 306 306 305 304 304 304 305 301 304 304 309 312 313 315 319 321 319 318 319 320 321 320 318 321 322 323 325 324 323 321 323 327 331 333 333 331 331 332 332 331 329 329 332
302 304 305 303 305 305 305 304 305 305 306 313 316 316 316 319 319 318 318 319 320 322 321 318 321 321 323 325 323 322 322 321 325 325 327 332 333 331 329 328 329 328 327 327
298 304 303 300 305 305 306 307 307 303 308 314 313 314 316 319 320 320 320 320 321 322 322 320 322 323 323 325 322 321 321 320 323 323 323 328 329 330 330 331 332 327 326 325
299 303 293 304 311 309 307 309 310 310 311 313 314 317 316 320 321 321 322 322 322 324 325 323 323 323 325 325 322 319 320 319 320 321 321 324 327 329 331 332 332 329 326 325
298 298 302 303 307 307 307 307 312 309 311 312 315 316 317 319 321 324 325 325 325 326 327 325 324 324 324 324 322 319 319 320 318 320 322 322 325 329 332 333 332 331 328 326
301 295 293 305 309 312 312 302 314 314 314 314 315 308 311 321 321 325 327 327 326 327 327 325 325 325 325 323 322 319 319 321 319 318 323 324 328 330 332 334 332 328 328 328
299 299 301 309 311 313 300 305 315 316 316 316 314 316 327 325 323 328 327 328 328 328 326 325 326 326 324 323 322 322 321 322 321 321 324 327 331 331 332 332 330 331 327 330
301 299 295 311 310 305 316 326 321 319 318 318 321 322 323 324 325 326 326 327 328 327 327 327 326 325 324 323 325 324 322 321 322 324 320 325 329 329 330 330 331 328 328 326
304 303 320 319 319 323 324 321 319 320 320 320 319 319 320 323 326 326 327 327 328 327 329 328 326 325 323 326 327 324 323 323 324 323 322 325 327 327 326 328 325 322 322 320
307 311 311 314 318 320 320 321 321 322 321 320 319 320 320 321 326 326 327 327 328 327 328 328 327 326 326 327 326 324 324 325 325 322 321 324 325 326 323 322 321 320 318 317
303 312 314 314 314 318 320 321 321 321 321 321 321 321 322 322 325 325 326 328 328 328 328 329 329 327 328 328 325 324 326 325 325 323 321 324 324 324 322 323 319 320 318 318
300 304 311 313 317 314 319 320 321 322 321 323 323 323 323 324 326 326 326 328 328 331 331 330 330 329 328 328 326 326 326 324 323 322 320 323 322 323 302 306 301 299 300 312
302 307 307 311 317 317 317 321 321 321 321 322 324 324 324 323 326 323 328 328 329 328 329 331 330 330 330 328 328 326 326 325 322 320 321 320 321 321 317 309 298 296 300 300
303 305 306 311 312 316 316 319 318 321 322 321 322 323 324 324 324 325 325 328 329 329 329 329 330 330 332 330 329 327 328 311 324 321 323 320 320 320 321 317 315 313 299 305
304 305 304 311 313 314 318 318 317 318 319 320 323 322 323 323 326 325 326 327 330 328 328 328 327 330 332 332 330 329 327 326 325 324 323 320 320 320 319 319 317 317 312 303
304 305 307 306 310 312 315 316 316 317 318 320 321 322 321 323 323 323 324 325 326 327 327 327 327 330 332 332 332 331 329 315 317 325 323 323 321 320 318 317 318 317 317 313
302 302 304 305 307 310 310 314 316 316 317 318 321 322 321 322 323 324 325 327 328 328 330 331 331 330 330 332 333 330 330 326 312 324 325 322 322 320 320 318 317 317 317 315
308 308 308 309 309 309 309 310 312 316 318 319 322 322 321 322 323 325 326 329 330 330 339 337 333 332 332 332 333 330 330 329 325 324 324 323 321 322 321 320 319 318 318 309
307 307 308 309 311 311 311 311 312 314 316 319 320 323 323 324 326 327 329 328 329 330 335 338 313 327 337 329 324 330 328 329 327 325 325 315 322 323 321 322 320 320 317 308
305 308 309 309 310 311 311 313 315 317 320 322 321 317 322 325 328 328 331 329 332 332 336 332 333 334 335 331 310 328 329 328 328 327 325 324 324 323 322 311 322 319 316 312
305 307 307 308 310 311 311 314 315 318 320 323 322 321 326 328 328 329 329 326 332 327 327 313 330 332 332 325 324 326 327 329 330 329 325 323 323 323 322 320 321 320 319 317
310 310 309 309 310 312 314 315 316 317 318 322 324 322 325 327 327 328 330 328 326 292 322 329 328 297 312 295 329 329 325 327 328 327 328 324 323 323 322 323 322 322 321 322
310 311 311 312 313 314 316 319 322 321 322 320 320 321 319 324 325 324 321 324 326 305 325 321 298 292 292 322 326 326 327 326 327 326 328 326 324 324 324 323 324 323 318 314
306 312 315 313 314 317 316 319 320 321 320 319 319 319 319 319 319 321 319 303 299 307 316 311 304 291 290 327 327 326 326 328 327 327 326 307 326 326 322 320 317 315 311 309
305 307 309 310 309 312 314 315 315 316 317 318 319 320 320 319 319 320 321 319 297 310 321 299 297 296 324 326 325 325 325 325 326 326 324 324 322 320 318 316 314 310 307 304
304 304 305 307 309 309 310 313 312 313 313 314 316 318 319 318 318 319 321 313 322 308 321 322 320 323 324 324 325 325 324 322 322 321 320 323 319 317 314 310 307 305 304 302
305 301 306 307 307 307 307 305 307 307 309 312 311 313 317 317 316 313 305 319 319 319 320 319 318 311 320 321 321 321 321 322 310 320 320 318 314 314 308 306 306 304 302 301

GFSNGP_sfc_thetae_015.txt.gz
Theta_e
298 300 301 301 301 301 298 299 296 298 299 302 305 306 310 312 312 312 311 312 313 313 310 311 311 315 318 318 314 315 317 315 317 319 322 322 322 324 325 327 325 326 325 327
295 301 300 300 302 302 302 301 300 300 299 306 310 309 310 313 313 312 312 314 314 315 311 312 313 314 317 317 314 314 317 316 318 318 321 322 319 319 322 323 322 322 321 319
291 297 298 294 301 301 302 302 301 297 300 305 306 307 307 313 313 313 313 314 315 315 313 313 314 314 316 316 313 313 317 318 318 318 321 321 320 319 319 320 318 318 318 317
292 294 286 298 305 306 303 304 303 303 305 306 307 309 311 316 314 314 315 315 316 316 313 313 315 314 316 315 313 313 315 317 317 317 319 320 319 319 319 319 317 317 317 315
290 290 296 300 304 303 301 300 306 303 306 308 308 308 307 317 318 316 316 317 317 318 315 314 316 316 317 314 312 312 313 314 317 316 316 317 319 317 319 319 318 316 315 314
292 287 286 297 305 308 306 297 306 306 305 305 306 302 303 312 317 317 318 318 318 319 317 316 316 317 316 315 312 311 313 314 316 316 316 315 319 319 320 320 320 319 316 313
292 289 294 303 308 308 294 295 307 308 307 306 303 306 309 312 317 320 319 319 321 320 316 316 317 318 316 315 313 313 314 314 313 316 316 316 320 321 321 321 319 317 318 314
292 291 288 306 305 298 301 307 309 309 310 308 309 312 313 317 317 319 319 320 321 319 316 317 318 318 316 315 316 315 314 315 313 314 319 323 321 321 321 320 318 317 316 315
296 295 305 308 305 312 312 307 310 310 311 313 313 312 313 313 318 319 320 320 321 320 317 318 319 318 316 316 318 317 314 313 314 315 316 322 321 320 318 318 318 314 316 313
297 301 302 308 310 312 312 310 313 314 314 313 311 312 312 316 318 319 320 320 321 321 318 317 318 318 319 320 320 317 314 314 315 313 315 321 322 321 319 316 315 313 313 311
298 300 302 304 307 311 314 314 314 314 315 314 313 312 312 316 319 320 321 321 322 322 320 318 318 319 320 322 320 316 315 316 314 313 317 318 320 320 318 317 315 314 311 311
294 299 299 300 303 314 313 312 314 313 314 315 314 313 313 314 319 319 320 322 322 322 322 321 320 320 321 321 320 317 317 317 315 313 316 317 317 315 300 302 303 303 303 309
297 301 301 302 305 309 313 314 315 315 316 314 316 315 316 318 318 317 320 322 322 323 324 324 322 321 322 322 321 319 318 318 316 313 316 316 316 316 312 301 297 296 298 299
302 303 300 303 301 305 311 315 316 319 319 317 318 318 318 319 318 318 320 323 324 325 325 325 324 323 324 323 322 319 318 307 318 317 314 316 316 316 315 310 305 304 298 297
302 304 302 303 304 304 313 315 314 316 318 316 318 318 319 318 318 318 320 324 323 322 324 326 326 325 326 324 322 320 321 318 318 318 317 313 316 316 314 313 310 309 303 297
302 301 302 301 303 304 304 311 314 314 315 316 317 318 321 319 319 319 319 321 322 321 323 323 324 327 328 326 322 322 321 311 313 317 316 316 315 315 314 312 312 311 307 305
298 298 301 300 302 303 305 307 313 315 314 316 317 317 318 317 317 316 317 318 319 321 321 321 324 325 328 327 324 324 323 318 308 318 316 317 316 314 314 313 311 312 311 306
302 303 303 303 303 304 307 309 310 310 311 316 319 318 317 316 315 315 317 317 320 324 324 325 325 329 327 327 326 325 324 322 317 319 318 317 316 316 313 313 312 311 312 307
301 302 303 306 305 306 307 308 310 311 312 314 317 317 318 318 318 318 318 320 320 320 324 324 314 322 326 311 321 325 324 323 320 319 319 309 310 316 315 315 313 312 312 308
300 302 305 307 308 307 306 308 310 310 311 316 317 317 317 319 320 320 320 321 323 325 325 324 326 325 325 319 309 320 321 321 321 320 319 317 317 316 315 306 313 313 311 308
302 302 303 306 307 307 307 308 309 309 311 313 319 318 315 315 321 325 322 320 321 319 319 316 324 323 321 313 317 320 318 320 320 320 319 318 318 316 318 317 315 313 309 307
306 306 308 308 306 306 308 309 311 310 310 315 318 318 318 318 320 319 320 317 313 295 317 317 312 295 305 296 317 320 318 319 320 320 320 318 317 316 317 316 315 314 311 312
305 307 308 309 309 309 310 312 316 318 317 320 318 317 316 317 320 316 313 314 315 302 313 308 293 291 290 311 316 317 318 317 317 318 318 318 318 317 317 317 316 316 316 311
305 307 308 310 311 311 309 314 316 316 316 316 317 318 317 315 315 316 314 302 297 304 309 305 301 292 290 317 318 318 318 317 317 316 316 305 316 316 315 316 316 314 312 307
305 304 307 306 306 308 311 312 313 314 315 315 313 315 316 316 317 317 317 315 298 309 315 294 293 297 319 318 317 317 317 313 315 316 316 314 313 312 312 313 312 310 308 304
303 305 305 305 305 307 308 310 310 310 312 311 313 314 315 315 316 316 316 310 315 306 315 313 310 315 317 317 317 316 314 314 314 315 313 313 311 308 306 305 305 304 303 301
304 301 305 306 307 307 306 305 307 307 309 311 310 313 314 313 310 310 304 314 313 312 312 310 309 306 312 311 309 309 311 310 303 312 310 309 305 304 304 303 302 302 301 300